TimeMST,TemperatureF,Dew PointF,Humidity,Sea Level PressureIn,VisibilityMPH,Wind Direction,Wind SpeedMPH,Gust SpeedMPH,PrecipitationIn,Events,Conditions,WindDirDegrees,DateUTC
12:53 AM,1.0,-0.0,95,30.54,10.0,East,3.5,-,N/A,,Clear,80,2012-12-22 07:53:00
1:53 AM,-0.0,-2.9,88,30.53,10.0,East,4.6,-,N/A,,Clear,80,2012-12-22 08:53:00
2:53 AM,-0.9,-2.9,91,30.54,10.0,Calm,Calm,-,N/A,,Clear,0,2012-12-22 09:53:00
3:53 AM,-2.0,-4.0,91,30.54,10.0,ENE,3.5,-,N/A,,Clear,70,2012-12-22 10:53:00
4:53 AM,-5.1,-7.1,91,30.56,10.0,Calm,Calm,-,N/A,,Clear,0,2012-12-22 11:53:00
5:53 AM,-2.0,-4.0,91,30.57,10.0,East,3.5,-,N/A,,Clear,80,2012-12-22 12:53:00
6:53 AM,-4.0,-7.1,87,30.58,10.0,Calm,Calm,-,N/A,,Clear,0,2012-12-22 13:53:00
7:53 AM,-2.0,-4.0,91,30.58,10.0,East,4.6,-,N/A,,Clear,100,2012-12-22 14:53:00
8:53 AM,7.0,3.9,87,30.55,10.0,Calm,Calm,-,N/A,,Clear,0,2012-12-22 15:53:00
9:53 AM,7.0,3.9,87,30.56,10.0,East,3.5,-,N/A,,Clear,90,2012-12-22 16:53:00
10:53 AM,8.1,6.1,92,30.53,9.0,Calm,Calm,-,N/A,,Clear,0,2012-12-22 17:53:00
11:53 AM,9.0,6.1,88,30.49,9.0,NW,4.6,-,N/A,,Clear,310,2012-12-22 18:53:00
12:53 PM,10.0,7.0,87,30.46,7.0,NW,4.6,-,N/A,,Clear,320,2012-12-22 19:53:00
1:53 PM,12.0,8.1,84,30.42,7.0,Calm,Calm,-,N/A,,Clear,0,2012-12-22 20:53:00
2:53 PM,10.9,8.1,88,30.42,10.0,NW,5.8,-,N/A,,Clear,320,2012-12-22 21:53:00
3:53 PM,15.1,9.0,77,30.41,10.0,West,5.8,-,N/A,,Clear,270,2012-12-22 22:53:00
4:53 PM,10.0,5.0,80,30.44,10.0,NNW,3.5,-,N/A,,Clear,330,2012-12-22 23:53:00
5:53 PM,8.1,5.0,87,30.43,10.0,Calm,Calm,-,N/A,,Clear,0,2012-12-23 00:53:00
6:53 PM,3.9,1.0,88,30.46,10.0,Calm,Calm,-,N/A,,Clear,0,2012-12-23 01:53:00
7:53 PM,1.0,-2.0,87,30.45,10.0,Calm,Calm,-,N/A,,Clear,0,2012-12-23 02:53:00
8:53 PM,3.0,1.9,95,30.40,10.0,Calm,Calm,-,N/A,,Clear,0,2012-12-23 03:53:00
9:53 PM,6.1,3.0,87,30.39,10.0,Calm,Calm,-,N/A,,Clear,0,2012-12-23 04:53:00
10:53 PM,6.1,3.0,87,30.39,10.0,NE,3.5,-,N/A,,Clear,40,2012-12-23 05:53:00
11:53 PM,7.0,3.9,87,30.37,10.0,Calm,Calm,-,N/A,,Clear,0,2012-12-23 06:53:00